Regional Weather Roundup
Issued by NWS

Home | Current Version | Previous Version | Graphics & Text | Print | Product List | Glossary On
Versions: 1 2 3 4 5 6 7 8 9 10 11 12 13 14 15 16 17 18 19 20 21 22 23 24 25 26 27 28 29 30 31 32 33 34 35 36 37 38 39 40 41 42 43 44 45 46 47 48 49 50
000
ASUS43 KOAX 231202
RWRNE

WEATHER ROUNDUP FOR NEBRASKA
NATIONAL WEATHER SERVICE OMAHA NE
700 AM CDT MON OCT 23 2017

NOTES: SATELLITE DATA IS BEING USED TO AUGMENT CLOUD COVER ABOVE
       12000 FEET.
       "FAIR" INDICATES FEW OR NO CLOUDS BELOW 12,000 FEET WITH NO
       SIGNIFICANT WEATHER AND/OR OBSTRUCTIONS TO VISIBILITY.


NEZ001>004-019>022-054>056-231300-
NEBRASKA PANHANDLE

CITY           SKY/WX    TMP DP  RH WIND       PRES   REMARKS
SCOTTSBLUFF    CLOUDY    47  24  40 NW23G33   30.31R
6HR MIN TEMP:  46; 6HR MAX TEMP:  62;

ALLIANCE       CLOUDY    48  24  39 NW21G28   30.23R
6HR MIN TEMP:  44; 6HR MAX TEMP:  54;

CHADRON        CLEAR     43  24  47 W14       30.25R
6HR MIN TEMP:  43; 6HR MAX TEMP:  57; 6HR PCP:  0.01;

GORDON         FAIR      39  35  84 NW8       30.19R WCI  33
6HR MIN TEMP:  39; 6HR MAX TEMP:  58; 6HR PCP:  0.03;

KIMBALL        LGT RAIN  39  32  75 N23G29    30.32R WCI  29
SIDNEY         CLOUDY    45  30  55 NW16      30.29R
6HR MIN TEMP:  44; 6HR MAX TEMP:  58;

$$

NEZ057>060-069>072-079>082-231300-
SOUTHWEST NEBRASKA

CITY           SKY/WX    TMP DP  RH WIND       PRES   REMARKS
NORTH PLATTE   CLOUDY    50  37  61 NW15G24   30.19R
6HR MIN TEMP:  39; 6HR MAX TEMP:  54;

IMPERIAL       CLOUDY    49  37  63 N16G24    30.23R
6HR MIN TEMP:  43; 6HR MAX TEMP:  57;

LEXINGTON      MOCLDY    54  35  47 NW16      30.12R
MCCOOK         CLOUDY    53  37  54 N22G30    30.16R
6HR MIN TEMP:  45; 6HR MAX TEMP:  56;

OGALLALA       CLOUDY    50  36  57 NW13      30.22R
$$

NEZ005>010-023>029-035>040-094-231300-
NORTH CENTRAL NEBRASKA

CITY           SKY/WX    TMP DP  RH WIND       PRES   REMARKS
VALENTINE      PTCLDY    52  26  36 NW20G29   30.13R
6HR MIN TEMP:  52; 6HR MAX TEMP:  59; 6HR PCP: TRACE;

AINSWORTH      PTCLDY    52  29  40 NW18G26   30.12R
BROKEN BOW     CLOUDY    56  32  40 NW22G31   30.09R
6HR MIN TEMP:  47; 6HR MAX TEMP:  60;

O`NEILL        CLOUDY    56  34  43 NW21G35   30.05R
ORD            MOCLDY    56  38  50 NW18G25   30.05R
6HR MIN TEMP:  44; 6HR MAX TEMP:  59;

THEDFORD       CLOUDY    53  28  37 NW21G31   30.15R
$$

NEZ041-046>049-061>064-073>077-083>087-231300-
SOUTH CENTRAL NEBRASKA

CITY           SKY/WX    TMP DP  RH WIND       PRES   REMARKS
GRAND ISLAND   CLEAR     56  39  53 NW16      30.01R
6HR MIN TEMP:  47; 6HR MAX TEMP:  59;

AURORA         CLEAR     58  37  46 N17G24    30.00R
HASTINGS       CLOUDY    56  38  50 NW18G28   30.03R
6HR MIN TEMP:  43; 6HR MAX TEMP:  57;

HEBRON         MOCLDY    57  38  50 N12G18    29.96R
HOLDREGE       CLOUDY    55  39  54 N14G25    30.09R
KEARNEY        CLOUDY    55  38  52 NW16      30.06R
YORK           PTCLDY    57  39  51 N14G23    29.98R
$$

NEZ011>018-030>034-042>045-231300-
NORTHEAST NEBRASKA

CITY           SKY/WX    TMP DP  RH WIND       PRES   REMARKS
NORFOLK        LGT RAIN  55  42  61 NW23G36   29.96R
6HR MIN TEMP:  50; 6HR MAX TEMP:  58; 6HR PCP: TRACE;

ALBION         MOCLDY    58  38  47 NW18      29.99R
BLAIR          PTCLDY    53  36  53 NW14      29.90R
COLUMBUS       CLOUDY    59  40  49 NW16G26   29.95R
FREMONT        CLOUDY    56  38  51 NW12G17   29.94R
TEKAMAH        CLOUDY    54  37  52 N12G17    29.91R
6HR MIN TEMP:  42; 6HR MAX TEMP:  54;

WAYNE          CLOUDY    59  34  38 NW17G29   29.95R
$$

NEZ050>053-065>068-078-088>093-231300-
SOUTHEAST NEBRASKA

CITY           SKY/WX    TMP DP  RH WIND       PRES   REMARKS
LINCOLN        PTCLDY    55  37  50 N8        29.94R
6HR MIN TEMP:  46; 6HR MAX TEMP:  56;

OMAHA EPPLEY   MOCLDY    50  35  56 NW5       29.90R
6HR MIN TEMP:  46; 6HR MAX TEMP:  51;

BEATRICE       CLEAR     46  36  66 NW12      29.93R
FALLS CITY     CLEAR     44  37  76 S5        29.89S
6HR MIN TEMP:  42; 6HR MAX TEMP:  51;

NEBRASKA CITY  CLEAR     47  37  67 W9        29.89R
PLATTSMOUTH    CLEAR     45  35  69 W8        29.89S
$$

NEZ044-045-051>053-067-231300-
OMAHA AREA

CITY           SKY/WX    TMP DP  RH WIND       PRES   REMARKS
OMAHA EPPLEY   MOCLDY    50  35  56 NW5       29.90R
6HR MIN TEMP:  46; 6HR MAX TEMP:  51;

BLAIR          PTCLDY    53  36  53 NW14      29.90R
FREMONT        CLOUDY    56  38  51 NW12G17   29.94R
MILLARD        PTCLDY    49  38  65 NW7       29.91R
OFFUTT AFB     CLOUDY    41  36  83 NW7       29.89R
PLATTSMOUTH    CLEAR     45  35  69 W8        29.89S
WAHOO          FAIR      57  37  48 NW13G18   29.93R
$$




USA.gov is the U.S. government's official web portal to all federal, state and local government web resources and services.